Date,TemperatureHighF,TemperatureAvgF,TemperatureLowF,DewpointHighF,DewpointAvgF,DewpointLowF,HumidityHigh,HumidityAvg,HumidityLow,PressureMaxIn,PressureMinIn,WindSpeedMaxMPH,WindSpeedAvgMPH,GustSpeedMaxMPH,PrecipitationSumIn
2013-1-1,30,22,10,25,12,1,87,65,49,29.83,29.58,7,2,18,0.01
2013-1-2,23,11,-3,11,1,-9,79,65,46,30.00,29.80,8,2,19,0.00
2013-1-3,18,6,-6,3,-3,-11,83,65,48,30.04,29.88,3,1,10,0.00
2013-1-4,34,23,7,26,17,2,86,78,62,29.88,29.69,4,1,12,0.02
2013-1-5,33,28,14,27,17,10,84,66,49,30.19,29.70,8,2,17,0.01
2013-1-6,32,23,11,27,19,8,93,84,74,30.16,29.86,4,1,10,0.01
2013-1-7,31,24,8,28,18,5,94,78,54,30.32,29.88,3,0,10,0.00
2013-1-8,38,23,4,25,16,1,90,78,59,30.31,30.16,6,1,15,0.03
2013-1-9,40,26,12,30,21,9,91,83,67,30.36,29.87,5,0,16,0.01
2013-1-10,42,35,22,33,26,19,88,70,52,30.48,29.89,327,2,327,0.11
2013-1-11,37,27,16,30,22,14,94,83,57,30.47,30.20,1,0,5,0.10
2013-1-12,39,35,32,37,34,30,96,95,93,30.19,30.06,2,0,7,0.20
2013-1-13,43,38,34,42,36,33,96,95,91,30.10,29.91,3,0,9,0.01
2013-1-14,56,42,30,48,37,27,97,86,54,30.17,29.81,5,1,15,0.03
2013-1-15,38,30,24,28,24,21,94,78,54,30.26,30.17,4,0,9,0.01
2013-1-16,29,28,26,27,25,22,93,89,78,30.21,29.73,1,0,3,0.00
2013-1-17,36,28,18,31,20,1,94,74,42,30.06,29.73,6,1,17,0.13
2013-1-18,18,11,1,6,-3,-9,78,54,31,30.33,30.02,7,1,16,0.02
2013-1-19,33,23,6,25,16,1,85,75,60,30.28,29.80,3,0,7,0.02
2013-1-20,43,31,18,32,20,5,94,68,41,29.81,29.43,9,2,20,0.09
2013-1-21,24,18,7,16,5,-1,89,58,37,29.99,29.76,327,1,327,0.01
2013-1-22,22,14,4,15,5,-10,89,71,37,29.97,29.73,6,1,19,0.00
2013-1-23,5,0,-4,-8,-15,-17,64,48,38,30.05,29.96,5,2,15,0.00
2013-1-24,13,3,-9,-8,-13,-17,68,48,29,30.08,29.91,6,1,16,0.00
2013-1-25,17,9,1,-1,-4,-10,66,55,40,30.15,29.99,5,1,12,0.00
2013-1-26,21,11,1,4,-2,-7,86,59,29,30.10,29.94,4,0,9,0.00
2013-1-27,26,14,6,3,-1,-7,72,51,35,30.36,30.09,5,1,12,0.00
2013-1-28,21,15,5,17,6,-5,90,68,40,30.36,30.01,327,0,327,0.00
2013-1-29,32,23,7,28,20,4,94,88,75,30.14,30.01,2,0,7,0.14
2013-1-30,46,34,30,45,33,28,97,96,94,30.10,29.38,327,0,327,0.39
2013-1-31,52,37,26,51,27,13,97,68,48,29.42,28.81,327,5,327,0.57
2013-2-1,27,22,13,17,8,3,68,55,42,29.97,29.43,7,3,17,0.02
2013-2-2,23,17,11,15,7,1,86,64,50,30.13,29.98,4,1,12,0.00
2013-2-3,26,21,13,16,14,10,89,75,57,29.98,29.65,327,0,327,0.00
2013-2-4,26,21,14,16,7,-4,86,56,28,29.82,29.62,6,2,18,0.00
2013-2-5,25,15,6,9,2,-3,81,59,36,30.52,29.82,3,1,10,0.00
2013-2-6,34,22,12,22,12,-8,89,69,33,30.22,29.88,7,1,18,0.01
2013-2-7,21,15,6,3,-2,-8,72,46,31,30.48,30.21,327,1,327,0.01
2013-2-8,15,13,10,11,7,-3,89,79,44,30.47,29.85,3,1,7,0.00
2013-2-9,21,16,10,16,11,4,90,81,69,30.10,29.70,327,1,327,0.00
2013-2-10,33,17,1,10,5,-4,86,61,35,30.31,30.11,4,1,10,0.25
2013-2-11,28,17,4,24,14,1,94,89,81,30.29,29.55,327,0,327,0.04
2013-2-12,41,35,28,31,29,26,95,78,62,29.76,29.50,6,2,16,0.48
2013-2-13,41,31,23,26,22,19,86,71,46,29.78,29.70,327,1,327,0.14
2013-2-14,39,28,19,24,20,17,90,74,47,29.94,29.68,327,0,327,0.01
2013-2-15,47,30,17,30,23,15,91,76,48,29.94,29.83,4,1,11,0.00
2013-2-16,38,33,27,28,23,10,84,67,49,29.90,29.73,327,0,327,0.00
2013-2-17,26,22,13,16,8,0,85,57,40,29.72,29.27,6,2,16,0.00
2013-2-18,30,19,10,6,-1,-6,64,44,23,30.00,29.47,327,2,327,0.00
2013-2-19,39,27,16,30,9,-5,94,50,21,30.06,29.53,4,1,10,0.07
2013-2-20,33,29,23,32,24,16,95,81,67,29.64,29.42,6,2,18,0.13
2013-2-21,30,24,17,18,13,8,83,63,49,30.13,29.63,5,2,15,0.01
2013-2-22,38,25,8,23,17,5,90,73,44,30.36,30.15,3,0,9,0.00
2013-2-23,32,29,24,30,26,21,95,88,81,30.29,29.95,1,0,2,0.02
2013-2-24,31,30,28,30,28,27,95,94,93,29.95,29.73,0,0,1,0.01
2013-2-25,38,30,21,35,29,19,96,93,85,30.19,29.86,1,0,4,0.57
2013-2-26,38,33,28,32,30,27,96,90,73,30.31,30.18,327,0,327,0.21
2013-2-27,33,31,28,32,30,27,96,95,93,30.18,29.64,2,0,5,0.09
2013-2-28,40,34,30,38,32,29,96,95,89,29.64,29.51,1,0,3,0.72
2013-3-1,36,32,27,32,30,26,96,91,83,29.63,29.50,327,0,327,0.06
2013-3-2,41,34,28,29,28,26,94,81,60,29.63,29.56,2,0,9,0.01
2013-3-3,38,32,29,33,29,25,94,86,76,29.60,29.50,327,0,327,0.12
2013-3-4,37,30,25,27,23,20,83,74,60,29.70,29.50,5,2,12,0.01
2013-3-5,42,33,25,32,27,21,90,78,62,30.06,29.70,3,0,8,0.01
2013-3-6,36,33,30,32,29,26,95,86,75,30.18,30.06,4,1,9,0.04
2013-3-7,34,31,29,27,26,24,87,79,70,30.16,30.04,4,2,11,0.01
2013-3-8,46,35,28,26,23,20,89,63,37,30.17,30.00,4,1,12,0.01
2013-3-9,53,34,18,26,20,10,90,63,19,30.33,30.15,2,0,8,0.01
2013-3-10,48,33,19,30,25,17,92,75,41,30.37,30.24,3,0,10,0.00
2013-3-11,50,38,30,33,30,27,91,75,46,30.27,30.09,4,0,9,0.00
2013-3-12,45,38,31,44,37,28,97,95,88,30.09,29.67,327,0,327,0.59
2013-3-13,48,39,28,42,33,25,97,82,49,29.72,29.65,5,1,14,0.35
2013-3-14,37,28,18,26,17,4,89,62,48,29.73,29.59,7,2,20,0.01
2013-3-15,37,24,13,27,12,3,92,61,36,29.75,29.55,4,1,16,0.00
2013-3-16,33,26,17,24,15,9,92,64,43,29.84,29.59,4,1,11,0.03
2013-3-17,29,21,13,13,7,-4,85,56,33,30.25,29.84,8,2,22,0.01
2013-3-18,34,21,4,20,5,-1,80,53,24,30.39,30.21,327,0,327,0.00
2013-3-19,30,27,22,28,24,20,93,90,68,30.21,29.68,2,0,5,0.01
2013-3-20,35,27,17,26,21,15,93,78,54,29.69,29.59,6,2,20,0.15
2013-3-21,38,26,9,19,15,6,91,67,35,29.71,29.55,4,1,9,0.49
2013-3-22,37,27,16,21,17,13,89,68,41,29.63,29.56,5,1,12,0.03
2013-3-23,38,31,23,25,21,16,84,66,49,29.67,29.52,8,3,18,0.01
2013-3-24,44,35,25,25,23,21,86,63,43,29.77,29.66,7,2,14,0.00
2013-3-25,41,30,16,30,24,14,91,80,60,29.75,29.54,2,0,8,0.00
2013-3-26,48,36,27,29,23,19,88,63,32,29.72,29.55,327,1,327,0.00
2013-3-27,49,37,27,33,26,22,90,68,40,29.85,29.70,4,1,11,0.01
2013-3-28,46,37,29,36,32,27,95,83,58,29.97,29.85,2,0,9,0.03
2013-3-29,51,41,31,35,31,28,92,70,45,30.00,29.93,5,1,18,0.01
2013-3-30,52,39,27,31,24,14,89,61,23,30.06,29.96,5,1,12,0.01
2013-3-31,54,37,20,36,23,-100,90,64,28,30.07,29.78,327,0,327,0.02
2013-4-1,52,39,31,42,33,15,96,81,45,29.78,29.44,6,1,14,0.75
2013-4-2,35,30,24,16,12,9,60,48,35,29.79,29.68,8,3,22,0.11
2013-4-3,42,33,26,18,12,6,66,44,24,30.05,29.78,8,3,18,0.00
2013-4-4,51,37,29,24,15,9,78,42,21,30.18,29.93,327,2,327,0.00
2013-4-5,53,39,28,28,24,18,84,58,30,29.94,29.63,327,2,327,0.00
2013-4-6,40,32,24,18,8,1,63,38,20,30.28,29.82,7,2,23,0.00
2013-4-7,54,38,23,33,22,14,82,57,31,30.28,29.91,4,1,11,0.00
2013-4-8,58,46,35,38,34,31,90,67,38,30.09,29.88,4,1,12,0.00
2013-4-9,56,41,35,47,38,31,96,90,60,30.08,29.87,3,0,9,0.38
2013-4-10,56,46,39,48,42,37,96,89,69,29.96,29.85,5,0,9,0.49
2013-4-11,50,44,36,41,31,21,97,66,35,30.14,29.84,4,0,9,0.30
2013-4-12,36,32,30,30,27,19,95,81,50,30.21,29.86,1,0,4,0.16
2013-4-13,48,37,31,41,34,30,96,91,74,29.87,29.76,2,0,6,0.43
2013-4-14,52,41,29,38,33,27,95,77,44,30.16,29.85,6,1,14,0.02
2013-4-15,57,40,26,36,30,25,94,71,34,30.35,30.16,327,0,327,0.01
2013-4-16,63,46,28,51,39,27,95,81,48,30.37,29.93,5,1,15,0.10
2013-4-17,62,50,31,52,35,27,92,60,32,30.31,29.95,327,1,327,0.02
2013-4-18,58,42,26,40,31,24,94,67,37,30.44,30.10,2,0,8,0.00
2013-4-19,73,60,46,60,52,38,88,77,59,30.10,29.55,327,1,327,0.02
2013-4-20,64,49,38,60,36,20,94,65,41,30.15,29.55,7,3,20,0.31
2013-4-21,51,39,26,25,20,14,87,49,23,30.66,30.16,327,1,327,0.02
2013-4-22,53,36,21,29,23,16,92,65,25,30.75,30.61,327,1,327,0.00
2013-4-23,40,34,26,38,32,24,94,90,82,30.61,30.19,1,0,5,0.01
2013-4-24,73,53,39,56,46,37,96,79,38,30.19,29.71,327,1,327,0.02
2013-4-25,60,52,32,51,35,24,91,56,27,30.27,29.70,7,2,18,0.01
2013-4-26,58,42,26,38,30,24,93,67,34,30.40,30.27,4,0,9,0.00
2013-4-27,65,48,29,39,33,25,95,64,23,30.40,30.23,3,1,9,0.00
2013-4-28,69,49,30,41,34,-100,95,64,28,30.31,30.17,3,0,10,0.00
2013-4-29,70,50,32,45,37,30,95,66,32,30.24,30.12,4,0,10,0.00
2013-4-30,72,54,36,43,38,32,95,60,26,30.35,30.22,3,0,10,0.00
2013-5-1,75,53,29,40,34,27,92,56,19,30.43,30.35,3,0,9,0.00
2013-5-2,79,52,35,49,37,31,90,63,25,30.50,30.35,3,0,8,0.00
2013-5-3,67,48,29,47,38,27,95,72,44,30.53,30.35,3,1,7,0.00
2013-5-4,71,51,35,47,38,29,96,69,21,30.37,30.22,3,1,8,0.00
2013-5-5,72,49,29,43,35,27,95,66,23,30.32,30.17,4,1,8,0.00
2013-5-6,75,54,31,48,38,29,95,64,19,30.23,30.08,3,1,8,0.00
2013-5-7,81,59,37,53,44,35,95,66,20,30.14,30.03,4,1,10,0.00
2013-5-8,76,61,45,62,54,44,96,80,50,30.19,30.08,3,0,11,0.03
2013-5-9,68,58,51,59,56,50,97,93,70,30.07,29.87,1,0,5,0.18
2013-5-10,74,60,52,65,54,-100,97,87,59,29.93,29.87,327,0,327,0.02
2013-5-11,66,59,52,63,57,51,97,94,84,29.88,29.65,3,0,7,0.42
2013-5-12,68,57,45,58,48,-100,97,75,43,29.72,29.52,5,1,15,0.12
2013-5-13,52,46,40,34,30,28,75,56,41,30.00,29.72,6,2,18,0.00
2013-5-14,59,45,30,34,30,24,94,60,29,30.01,29.92,6,1,11,0.00
2013-5-15,66,46,29,49,36,27,96,74,32,30.01,29.64,4,1,13,0.09
2013-5-16,76,55,45,52,19,-100,96,59,27,29.79,29.56,7,2,20,0.02
2013-5-17,68,51,40,53,38,-100,93,77,49,30.19,29.79,0,0,0,0.01
2013-5-18,70,52,37,58,46,36,96,82,52,30.30,30.19,0,0,0,0.00
2013-5-19,63,51,42,58,49,40,96,91,79,30.34,30.21,0,0,0,0.00
2013-5-20,77,60,50,69,57,49,97,90,72,30.20,29.91,0,0,0,0.00
2013-5-21,59,53,49,58,52,48,97,96,93,30.13,29.93,0,0,0,0.00
2013-5-22,61,53,49,60,52,48,97,96,91,30.01,29.90,0,0,0,0.00
2013-5-23,71,57,49,67,56,48,97,94,88,29.92,29.78,0,0,0,0.00
2013-5-27,51,51,51,48,48,48,90,90,90,30.06,30.06,0,0,0,0.00
2013-6-3,79,71,60,67,58,50,85,65,45,29.78,29.70,5,2,11,0.42
2013-6-4,65,58,45,46,44,42,89,60,44,30.06,29.81,7,2,16,0.00
2013-6-5,45,45,45,43,43,42,91,91,90,30.06,30.06,1,1,3,0.00
2013-6-7,55,54,52,53,52,49,94,93,91,30.09,30.08,1,0,4,0.08
2013-6-13,68,62,55,58,55,53,93,80,61,29.76,29.70,0,0,3,0.01
2013-6-14,77,62,52,61,54,50,94,79,41,29.74,29.66,327,0,327,0.01
2013-6-15,76,61,44,52,47,41,93,65,32,29.90,29.74,327,1,327,0.01
2013-6-16,74,63,48,61,54,45,92,75,48,29.90,29.70,3,1,7,0.01
2013-6-17,80,65,56,62,58,54,93,79,46,29.86,29.72,4,1,13,0.03
2013-6-18,64,59,53,57,56,51,93,89,76,29.96,29.86,1,0,6,0.05
2013-6-19,73,59,42,56,49,40,95,74,41,30.14,29.92,3,0,7,0.01
2013-6-20,76,57,41,54,46,39,94,72,41,30.24,30.14,3,1,9,0.01
2013-6-24,71,71,70,67,67,67,89,88,87,29.91,29.89,2,1,5,0.02
2013-6-25,88,76,68,73,68,64,92,79,54,29.91,29.70,5,2,12,0.05
2013-6-28,60,59,57,59,58,56,95,95,95,29.62,29.55,0,0,3,0.97
2013-6-29,62,62,62,61,61,61,96,95,95,29.54,29.53,0,0,0,0.01
2013-7-4,90,85,75,76,74,71,88,71,58,30.13,30.04,4,2,12,0.00
2013-7-5,75,73,71,71,70,68,91,89,88,30.09,30.08,327,0,327,0.00